Погода в Магадане

Погода в Магадане : погода сейчас, прогноз погоды и архив. Всё, что Вы хотите узнать о погоде в Магадане!

Хотите узнать прогноз погоды в Магадане? Тогда Вам сюда: Погода в Магадане

Поиск расширенной информации на нашем сайте:

Другие новости

Новости СМИ2

Главная страница сайта

Новости сайта

02.10.2013

Напоминаем, что на нашем новом сайте вы можете получить высокодетализированные прогнозы погоды по пунктам России, СНГ и мира (включающие важные для авиации метеовеличины, такие как направление и скорость ветра, видимость, явления погоды, количество и форма облачности, нижняя и верхняя граница облачности), а также ознакомиться с разнообразными материалами по авиационной метеорологии и подборкой полезных ссылок на эту тему.

Сайт Метеоцентр.Азия посвящён разработке технологий оптимизации авиаметеорологического обслуживания, включая проектирование и перспективное создание нескольких автоматизированных авиаметеорологических систем:
- система выпуска высокодетальных прогностических карт явлений погоды для нижнего воздушного пространства по России и ближнему зарубежью;
- система верификации прогнозов TAF (выпускаемых синоптиками официальных АМСГ РФ и ближнего зарубежья) и AUTOTAF (выпускаемых сайтом Метеоцентр.Азия) - выявление ошибок, онлайн-сопоставление с фактической погодой METAR, автоматическое внесение коррективов в прогнозы при резком отклонении фактической погоды от прогноза, подсчёт оправдываемости прогнозов по элементам и в целом;
- система обработки, анализа и отображения авиаметеорологической информации для применения провайдерами метеорологической информации.

Рекомендуем: Дисконтная программа в магазине www.minisoft.com.ua.

Погода в Магадане - сегодня

Время (UTC), дата Ветер
(°,м/с) 
Видим.   Явления Облачность Т
(°С)
Тd
(°С)
f(%) Тe
(°С)
Pmin
(гПа)
dP
(гПа)
Po
(мм)
O2
(г/м3)
Тmin Tmax R s Состояние
почвы
09 17.02.17 060 (СВ) 20000 м  в посл. час ливневой снег  9/8 600 м кучево-дожд., средняя 
[Cb calv|Ac trans]
-16.2 -22.1 60 -21  1014.4  0.3  749  323    -14.3  0.0     
12 17.02.17 060 (СВ) 20000 м  {ливн. осадки, снег}  8/8 1000 м 
[Sc]
-16.6 -21.9 64 -22  1014.3  -0.2  749  323           
15 17.02.17 060 (СВ) 20000 м    9/9 600 м кучево-дожд. 
[Cb calv]
-16.6 -20.9 69 -22  1013.6  -0.7  749  323           
18 17.02.17 060 (СВ) 20000 м    9/6 600 м кучево-дожд., средняя, верхняя 
[Cb calv|Ac trans|Ci fib]
-17.4 -22.5 64 -22  1012.7  -0.9  748  323           
21 17.02.17 050 (СВ) 5{10}  20000 м    10/0 средняя, верхняя 
[Ac trans|Cs]
-18.1 -23.3 64 -24  1011.9  -0.8  747  324  -18.2      13  неравномерный
сухой снег
100% 
00 18.02.17 050 (СВ) 20000 м    10/0 средняя, верхняя 
[Ac trans|Cs]
-17.9 -23 64 -24  1010.9  -1  746  324  -18.5         
03 18.02.17 050 (СВ) 5{10}  20000 м    8/0 верхняя 
[Ci fib]
-15.9 -22.5 57 -22  1008.4  -2.4  745  320           
06 18.02.17 050 (СВ) 20000 м    8/0 верхняя 
[Ci fib]
-15.9 -22.4 57 -21  1007.1  -1.3  744  320           
09 18.02.17 070 (В) 7-10{10}  20000 м    9/3 1000 м верхняя 
[Sc|Ci fib]
-17.3 -23.2 60 -25  1006.5  -0.7  743  321    -15.4       
12 18.02.17 080 (В) 5{12}  20000 м    3/3 1000 м 
[Sc]
-17 -23.7 56 -23  1005.1  -1.3  742  321           
15 18.02.17 060 (СВ) 6{10}  20000 м    1/1 1000 м 
[Sc]
-17.4 -24.2 55 -24  1003.7  -1.4  741  321           
18 18.02.17 060 (СВ) 6{10}  20000 м    4/4 1000 м 
[Sc]
-15.9 -24 50 -22  1002.4  -1.2  740  318           
21 18.02.17 060 (СВ) 7{10}  20000 м    9/8 1000 м средняя 
[Sc|Ac trans]
-14.8 -23.1 49 -22  1001.8  -0.5  740  317  -17.9      13  неравномерный
мокрый или
старый снег
100% 
00 19.02.17 060 (СВ) 6-11{11}  20000 м    9/8 600 м кучево-дожд., средняя 
[Cb calv|Ac trans]
-11.5 -20.5 47 -17  1001.4  -0.3  740  313           
03 19.02.17 060 (СВ) 5{11}  4000 м  слаб. ливневой снег  10/10 600 м кучево-дожд. 
[Cb cap]
-10.1 -12.2 85 -15  1000.5  -0.7  739  310           
06 19.02.17 070 (В) 7-11{11}  4000 м  слаб. ливневой снег  10/10 600 м кучево-дожд. 
[Cb cap]
-8.4 -11 81 -14  999.9  -0.5  739  308           
09 19.02.17 070 (В) 5{11}  20000 м  слаб. ливневой снег  10/10 600 м кучево-дожд. 
[Cb cap]
-6.7 -12.5 63 -11  1000.5  0.7  739  306    -6.7     
12 19.02.17 060 (СВ) 4{12}  20000 м  {ливн. осадки}  9/9 600 м кучево-дожд. 
[Cb calv]
-7.4 -13.4 62 -11  1000.8  0.3  740  307           
15 19.02.17 090 (В) 6-11{13}  20000 м  позёмок  9/8 600 м кучево-дожд., средняя 
[Cb calv|Ac trans]
-6 -12.3 61 -11  1000.9  0.1  740  306           
18 19.02.17 080 (В) 4{13}  20000 м    9/3 600 м кучево-дожд., средняя, верхняя 
[Cb calv|Ac trans|Ci fib]
-6.3 -12.7 60 -10  1001.1  0.2  740  306           
21 19.02.17 050 (СВ) 4{11}  20000 м    9/4 1000 м средняя, верхняя 
[Sc|Ac trans|Ci fib]
-7.3 -14 59 -11  1001.6  0.5  740  308  -7.8    0.0  13  неравномерный
сухой снег
100% 
00 20.02.17 070 (В) 5{10}  20000 м    9/4 600 м кучево-дожд., средняя, верхняя 
[Cb calv|Ac trans|Ci fib]
-5 -13.8 50 -9  1002.2  0.7  741  305           
03 20.02.17 090 (В) 7-11{14}  20000 м  позёмок  9/3 600 м кучево-дожд., верхняя 
[Cb calv|Ci fib]
-4.1 -11.9 55 -9  1001.2  -1  740  304           
06 20.02.17 090 (В) 6-13{14}  20000 м  позёмок  9/3 600 м кучево-дожд., верхняя 
[Cb calv|Ci fib]
-3.6 -11.9 53 -8  1001.3  0.2  740  303           
09 20.02.17 070 (В) 5{13}  20000 м    9/9 600 м кучево-дожд. 
[Cb calv]
-4.3 -11.7 56 -8  1002.2  0.8  741  304    -3.3       
Время (UTC), дата Ветер
(°,м/с) 
Видим.   Явления Облачность Т
(°С)
Тd
(°С)
f(%) Тe
(°С)
Pmin
(гПа)
dP
(гПа)
Po
(мм)
O2
(г/м3)
Тmin Tmax R s Состояние
почвы

Для получения пояснительной информации подведите курсор к названию столбца.

ПОГОДА в Магадане - архив

Всё, что Вы хотите узнать о погоде в Магадане - удобно и подробно!

Выберите нужную дату (начиная с 1 января 2015* года) и нажмите кнопку "Найти".
Будут отображены архивные сводки погоды по пункту Магадан, начиная с указанной даты.


Отображать данные в формате CSV (для использования в таблицах Excel)


Внимание! Наш архив погоды предназначен исключительно для личного некоммерческого использования в познавательных целях. Если Вам необходимы официальные справки о состоянии погоды (для производственных, юридических, коммерческих и т.п. целей), обращайтесь в органы Росгидромета.

*Примечание: данная дата относится к архиву по метеостанциям СССР (Россия, СНГ, Балтия).
Архив по метеостанциям Зарубежной Европы и Азии (кроме Китая) хранится 10 дней, по другим регионам земного шара (Китай, Африка, Америка, Австралия, Океания) - 1 день.

Магадан - район местоположения метеостанции


Название, широта, долгота, высота метеостанции:
Магадан (город) 59.6°ш. 150.8°д. 116 м над ур. моря [Российская Федерация]

Дополнительная информация

В oтличие oт бoльшинства пoгoдных сайтoв мы публикуем пoдрoбную метеoинфoрмацию в детальнoм прoфессиoнальнoм фoрмате.

Характеристики температуры и влажнoсти вoздуха измеряются на высoте 2 м в тени вдали oт зданий и деревьев.
Скoрoсть ветра измеряется на высoте 10 м (на урoвне рoста челoвека скoрoсть ветра ниже в 1.5-2 раза). Если метеoстанция нахoдится в гoрoде или в лесу, тo скoрoсть ветра занижена на 2-4 м/с пo сравнению с oткрытым местoм. Скoрoсть ветра над акватoриями крупных рек и oзёр, а также на вершинах хoлмoв на 2-5 м/с выше, чем в oбычных услoвиях.
Атмoсфернoе давление в разных тoчках местнoсти мoжет значительнo oтличаться oт давления на метеoстанции, в зависимoсти oт услoвий рельефа (при пoдъёме на 10 м давление пoнижается примернo на 1 мм рт.ст.).